Hourly Weather Jugsalai

Today, 30 November, Monday

Time Temperature Precipitation Wind Pressure Humidity
00:00 +18°C° 0 mm 0 mps 748 mmHg 43%
01:00 +18°C° 0 mm 0 mps 748 mmHg 44%
02:00 +18°C° 0 mm 0 mps 747 mmHg 46%
03:00 +19°C° 0 mm 1 mps 747 mmHg 47%
04:00 +19°C° 0 mm 1 mps 747 mmHg 49%
05:00 +19°C° 0 mm 1 mps 747 mmHg 50%
06:00 +18°C° 0 mm 1 mps 747 mmHg 49%
07:00 +20°C° 0 mm 1 mps 748 mmHg 46%
08:00 +22°C° 0 mm 1 mps 748 mmHg 43%
09:00 +24°C° 0 mm 1 mps 749 mmHg 40%
10:00 +25°C° 0 mm 1 mps 748 mmHg 36%
11:00 +27°C° 0 mm 1 mps 748 mmHg 32%
12:00 +29°C° 0 mm 1 mps 748 mmHg 29%
13:00 +29°C° 0 mm 1 mps 747 mmHg 27%
14:00 +30°C° 0 mm 1 mps 746 mmHg 26%
15:00 +30°C° 0 mm 2 mps 746 mmHg 25%
16:00 +28°C° 0 mm 1 mps 746 mmHg 27%
17:00 +26°C° 0 mm 1 mps 746 mmHg 30%
18:00 +25°C° 0 mm 1 mps 746 mmHg 33%
19:00 +24°C° 0 mm 1 mps 746 mmHg 34%
20:00 +23°C° 0 mm 1 mps 747 mmHg 35%
21:00 +20°C° 0 mm 0 mps 748 mmHg 36%
22:00 +22°C° 0 mm 1 mps 747 mmHg 38%
23:00 +21°C° 0 mm 1 mps 747 mmHg 40%

Tomorrow, 1 December, Tuesday

Time Temperature Precipitation Wind Pressure Humidity
00:00 +20°C° 0 mm 1 mps 747 mmHg 42%
01:00 +20°C° 0 mm 1 mps 747 mmHg 43%
02:00 +19°C° 0 mm 1 mps 747 mmHg 45%
03:00 +19°C° 0 mm 1 mps 747 mmHg 46%
04:00 +18°C° 0 mm 1 mps 747 mmHg 47%
05:00 +16°C° 0 mm 0 mps 747 mmHg 49%
06:00 +16°C° 0 mm 0 mps 747 mmHg 50%
07:00 +20°C° 0 mm 1 mps 747 mmHg 46%
08:00 +21°C° 0 mm 1 mps 748 mmHg 43%
09:00 +23°C° 0 mm 1 mps 749 mmHg 39%
10:00 +25°C° 0 mm 1 mps 748 mmHg 35%
11:00 +27°C° 0 mm 1 mps 748 mmHg 32%
12:00 +27°C° 0 mm 0 mps 748 mmHg 28%
13:00 +30°C° 0 mm 1 mps 747 mmHg 27%
14:00 +30°C° 0 mm 1 mps 746 mmHg 25%
15:00 +30°C° 0 mm 1 mps 745 mmHg 24%
16:00 +28°C° 0 mm 1 mps 745 mmHg 27%
17:00 +26°C° 0 mm 1 mps 745 mmHg 30%
18:00 +22°C° 0 mm 0 mps 745 mmHg 33%
19:00 +22°C° 0 mm 0 mps 746 mmHg 34%
20:00 +21°C° 0 mm 0 mps 746 mmHg 36%
21:00 +20°C° 0 mm 0 mps 747 mmHg 37%
22:00 +20°C° 0 mm 0 mps 747 mmHg 38%
23:00 +21°C° 0 mm 1 mps 747 mmHg 40%

Day after tomorrow, 2 December, Wednesday

Time Temperature Precipitation Wind Pressure Humidity
00:00 +20°C° 0 mm 1 mps 746 mmHg 41%
01:00 +20°C° 0 mm 1 mps 746 mmHg 43%
02:00 +19°C° 0 mm 1 mps 746 mmHg 45%
03:00 +19°C° 0 mm 1 mps 746 mmHg 46%
04:00 +19°C° 0 mm 1 mps 746 mmHg 48%
05:00 +16°C° 0 mm 0 mps 746 mmHg 49%
06:00 +16°C° 0 mm 0 mps 746 mmHg 50%
07:00 +18°C° 0 mm 0 mps 747 mmHg 46%
08:00 +19°C° 0 mm 0 mps 747 mmHg 43%
09:00 +21°C° 0 mm 0 mps 748 mmHg 39%
10:00 +23°C° 0 mm 0 mps 747 mmHg 36%
11:00 +25°C° 0 mm 0 mps 747 mmHg 33%
12:00 +27°C° 0 mm 0 mps 746 mmHg 29%
13:00 +30°C° 0 mm 1 mps 746 mmHg 28%
14:00 +30°C° 0 mm 1 mps 745 mmHg 27%
15:00 +30°C° 0 mm 1 mps 744 mmHg 26%
16:00 +29°C° 0 mm 1 mps 744 mmHg 29%
17:00 +27°C° 0 mm 1 mps 744 mmHg 32%
18:00 +23°C° 0 mm 0 mps 744 mmHg 35%
19:00 +22°C° 0 mm 0 mps 745 mmHg 36%
20:00 +24°C° 0 mm 1 mps 745 mmHg 37%
21:00 +23°C° 0 mm 1 mps 746 mmHg 39%
22:00 +22°C° 0 mm 1 mps 745 mmHg 41%
23:00 +22°C° 0 mm 1 mps 745 mmHg 43%

3 December, Thursday

Time Temperature Precipitation Wind Pressure Humidity
00:00 +21°C° 0 mm 1 mps 745 mmHg 46%
01:00 +20°C° 0 mm 1 mps 745 mmHg 47%
02:00 +20°C° 0 mm 1 mps 745 mmHg 49%
03:00 +19°C° 0 mm 1 mps 745 mmHg 50%
04:00 +17°C° 0 mm 0 mps 745 mmHg 51%
05:00 +17°C° 0 mm 0 mps 745 mmHg 52%
06:00 +16°C° 0 mm 0 mps 745 mmHg 53%
07:00 +18°C° 0 mm 0 mps 746 mmHg 49%
08:00 +20°C° 0 mm 0 mps 746 mmHg 45%
09:00 +22°C° 0 mm 0 mps 747 mmHg 41%
10:00 +23°C° 0 mm 0 mps 746 mmHg 37%
11:00 +25°C° 0 mm 0 mps 746 mmHg 32%
12:00 +27°C° 0 mm 0 mps 746 mmHg 28%
13:00 +30°C° 0 mm 1 mps 745 mmHg 27%
14:00 +30°C° 0 mm 1 mps 744 mmHg 25%
15:00 +30°C° 0 mm 1 mps 744 mmHg 24%
16:00 +29°C° 0 mm 1 mps 744 mmHg 26%
17:00 +27°C° 0 mm 1 mps 744 mmHg 29%
18:00 +23°C° 0 mm 0 mps 744 mmHg 32%
19:00 +24°C° 0 mm 1 mps 745 mmHg 34%
20:00 +23°C° 0 mm 1 mps 745 mmHg 35%
21:00 +23°C° 0 mm 1 mps 746 mmHg 37%
22:00 +22°C° 0 mm 1 mps 745 mmHg 38%
23:00 +21°C° 0 mm 1 mps 745 mmHg 40%

4 December, Friday

Time Temperature Precipitation Wind Pressure Humidity
00:00 +21°C° 0 mm 1 mps 745 mmHg 42%
01:00 +18°C° 0 mm 0 mps 745 mmHg 43%
02:00 +18°C° 0 mm 0 mps 745 mmHg 44%
03:00 +17°C° 0 mm 0 mps 744 mmHg 45%
04:00 +17°C° 0 mm 0 mps 745 mmHg 47%
05:00 +16°C° 0 mm 0 mps 745 mmHg 48%
06:00 +16°C° 0 mm 0 mps 745 mmHg 49%
07:00 +18°C° 0 mm 0 mps 746 mmHg 45%
08:00 +20°C° 0 mm 0 mps 746 mmHg 41%
09:00 +22°C° 0 mm 0 mps 747 mmHg 38%
10:00 +24°C° 0 mm 0 mps 746 mmHg 34%
11:00 +26°C° 0 mm 0 mps 746 mmHg 30%
12:00 +28°C° 0 mm 0 mps 745 mmHg 27%
13:00 +30°C° 0 mm 1 mps 745 mmHg 26%
14:00 +30°C° 0 mm 1 mps 744 mmHg 25%
15:00 +30°C° 0 mm 1 mps 743 mmHg 24%
16:00 +29°C° 0 mm 1 mps 743 mmHg 27%
17:00 +27°C° 0 mm 1 mps 744 mmHg 30%
18:00 +25°C° 0 mm 1 mps 744 mmHg 33%
19:00 +22°C° 0 mm 0 mps 744 mmHg 34%
20:00 +22°C° 0 mm 0 mps 745 mmHg 35%
21:00 +21°C° 0 mm 0 mps 745 mmHg 37%
22:00 +20°C° 0 mm 0 mps 745 mmHg 39%
23:00 +19°C° 0 mm 0 mps 745 mmHg 40%

5 December, Saturday

Time Temperature Precipitation Wind Pressure Humidity
00:00 +19°C° 0 mm 0 mps 745 mmHg 42%
01:00 +18°C° 0 mm 0 mps 745 mmHg 44%
02:00 +18°C° 0 mm 0 mps 745 mmHg 45%
03:00 +17°C° 0 mm 0 mps 745 mmHg 46%
04:00 +17°C° 0 mm 0 mps 745 mmHg 48%
05:00 +17°C° 0 mm 0 mps 745 mmHg 50%
06:00 +16°C° 0 mm 0 mps 745 mmHg 51%
07:00 +20°C° 0 mm 1 mps 746 mmHg 48%
08:00 +22°C° 0 mm 1 mps 746 mmHg 45%
09:00 +23°C° 0 mm 1 mps 746 mmHg 42%
10:00 +25°C° 0 mm 1 mps 746 mmHg 38%
11:00 +27°C° 0 mm 1 mps 746 mmHg 34%
12:00 +29°C° 0 mm 1 mps 745 mmHg 30%
13:00 +30°C° 0 mm 1 mps 745 mmHg 28%
14:00 +31°C° 0 mm 1 mps 744 mmHg 25%
15:00 +31°C° 0 mm 1 mps 743 mmHg 23%
16:00 +29°C° 0 mm 1 mps 743 mmHg 26%
17:00 +27°C° 0 mm 1 mps 743 mmHg 29%
18:00 +25°C° 0 mm 1 mps 744 mmHg 32%
19:00 +24°C° 0 mm 1 mps 744 mmHg 34%
20:00 +22°C° 0 mm 0 mps 745 mmHg 35%
21:00 +21°C° 0 mm 0 mps 745 mmHg 37%
22:00 +20°C° 0 mm 0 mps 745 mmHg 38%
23:00 +20°C° 0 mm 0 mps 745 mmHg 39%
Show more